Location: C�an Torras
(41.5052°N, 1.9280°E)
Time: 18:11:43
(UTC+00:00)

Cosmos 1777 Rocket - Pass Details

Date: 20 January 2021
Orbit: 758 x 776 km, 74.0° (Epoch: 03 March)

Event Time Altitude Azimuth Distance (km) Brightness Sun altitude
Rises 17:10:30 0° 179° (S) 3,218 7.6 -3.7°
Reaches altitude 10° 17:12:56 10° 173° (S) 2,300 6.7 -4.1°
Maximum altitude 17:17:52 43° 103° (ESE) 1,073 4.4 -5.0°
Drops below altitude 10° 17:22:49 10° 33° (NNE) 2,326 6.0 -5.9°
Sets 17:25:18 0° 27° (NNE) 3,259 6.8 -6.3°
